Weather History for KFNB - June, 2013

Change the Weather History Date:

Sunday, June 23, 2013

  Actual Average (KSTJ) Record (KSTJ)
Temperature  
Mean Temperature 74 °F 75 °F  
Max Temperature 84 °F 85 °F 102 °F (1937)
Min Temperature 64 °F 65 °F 50 °F (1972)
Degree Days  
Heating Degree Days 0 0  
Month to date heating degree days 6  
Since 1 June heating degree days 6  
Since 1 July heating degree days 5456  
Cooling Degree Days 9 10  
Month to date cooling degree days 191  
Year to date cooling degree days 304  
Since 1 June cooling degree days 191  
Growing Degree Days 24 (Base 50)    
Moisture  
Dew Point 69 °F    
Average Humidity 84    
Maximum Humidity 100    
Minimum Humidity 69    
Precipitation  
Precipitation 0.46 in 0.12 in 2.07 in (1976)
Month to date precipitation 3.45  
Year to date precipitation 16.40  
Sea Level Pressure  
Sea Level Pressure 29.85 in    
Wind  
Wind Speed 13 mph (SE)    
Max Wind Speed 26 mph    
Max Gust Speed 39 mph    
Visibility 10 miles    
Events Rain , Thunderstorm    
T = Trace of Precipitation, MM = Missing Value Source: NWS Daily Summary

Daily Weather History Graph

Daily Weather History Graph

Search for Another Location

Airport or City:

Trip Planner

Search our weather history database for the weather conditions in past years. The results will help you decide how hot, cold, wet, or windy it might be!

Date:

Astronomy

Jun. 23, 2013 Rise Set
Actual Time 5:54 AM CDT 8:55 PM CDT
Civil Twilight 5:21 AM CDT 9:28 PM CDT
Nautical Twilight 4:39 AM CDT 10:10 PM CDT
Astronomical Twilight 3:50 AM CDT 10:58 PM CDT
Moon 9:08 PM CDT (6/23) 6:12 AM CDT (6/23)
Length of Visible Light 16h 07m
Length of Day
15h 01m
Full, 100% of the Moon is Illuminated
Jun 23
Full
Jun 29
Last Quarter
Jul 8
New
Jul 15
First Quarter
Jul 22
Full

Hourly Weather History & Observations

Time (CDT) Temp. Heat Index Dew Point Humidity Pressure Visibility Wind Dir Wind Speed Gust Speed Precip Events Conditions
12:53 AM 79.0 °F - 70.0 °F 74% 29.82 in 10.0 mi SSE 12.7 mph - N/A   Clear
1:53 AM 79.0 °F - 69.1 °F 72% 29.79 in 10.0 mi South 13.8 mph 21.9 mph N/A   Clear
2:53 AM 79.0 °F - 68.0 °F 69% 29.80 in 10.0 mi South 15.0 mph 23.0 mph N/A   Clear
3:53 AM 78.1 °F - 68.0 °F 71% 29.79 in 10.0 mi South 12.7 mph 21.9 mph N/A   Clear
4:53 AM 78.1 °F - 68.0 °F 71% 29.80 in 10.0 mi South 12.7 mph - N/A   Clear
5:53 AM 77.0 °F - 68.0 °F 74% 29.77 in 10.0 mi South 12.7 mph 25.3 mph N/A   Clear
6:43 AM 77.0 °F - 69.8 °F 78% 29.86 in 10.0 mi West 15.0 mph 21.9 mph N/A Thunderstorm Scattered Clouds
6:53 AM 77.0 °F - 69.1 °F 76% 29.85 in 10.0 mi West 9.2 mph - N/A Thunderstorm Mostly Cloudy
7:02 AM 75.2 °F - 68.0 °F 78% 29.90 in 10.0 mi WNW 26.5 mph 39.1 mph 0.00 in Rain , Thunderstorm Light Rain
7:15 AM 69.8 °F - 66.2 °F 88% 29.92 in 10.0 mi NNW 17.3 mph 32.2 mph 0.00 in Rain , Thunderstorm Light Rain
7:22 AM 69.8 °F - 66.2 °F 88% 29.93 in 10.0 mi NNW 20.7 mph 28.8 mph 0.00 in Rain Light Rain
7:43 AM 66.2 °F - 64.4 °F 94% 29.93 in 6.0 mi North 13.8 mph 32.2 mph 0.06 in Rain , Thunderstorm Light Rain
7:48 AM 66.2 °F - 64.4 °F 94% 29.93 in 10.0 mi North 15.0 mph 28.8 mph 0.06 in Rain , Thunderstorm Light Rain
7:53 AM 66.0 °F - 64.9 °F 96% 29.91 in 10.0 mi NNE 16.1 mph 25.3 mph 0.06 in Rain , Thunderstorm Light Rain
8:09 AM 66.2 °F - 64.4 °F 94% 29.94 in 10.0 mi NNE 11.5 mph 19.6 mph 0.01 in Rain Light Rain
8:25 AM 66.2 °F - 64.4 °F 94% 29.92 in 8.0 mi NE 12.7 mph 19.6 mph 0.03 in Rain , Thunderstorm Light Rain
8:53 AM 64.9 °F - 63.0 °F 93% 29.83 in 9.0 mi ENE 19.6 mph 38.0 mph 0.05 in Rain , Thunderstorm Rain
9:53 AM 64.9 °F - 64.0 °F 97% 29.90 in 4.0 mi East 6.9 mph - 0.24 in Rain , Thunderstorm Heavy Thunderstorms and Rain
10:11 AM 64.4 °F - 64.4 °F 100% 29.85 in 10.0 mi ESE 16.1 mph 23.0 mph 0.02 in Rain Light Rain
10:51 AM 68.0 °F - 64.4 °F 88% 29.84 in 10.0 mi SE 10.4 mph 23.0 mph 0.02 in   Clear
10:53 AM 68.0 °F - 64.0 °F 87% 29.83 in 10.0 mi SE 11.5 mph 23.0 mph 0.02 in   Clear
11:53 AM 70.0 °F - 64.9 °F 84% 29.84 in 10.0 mi SE 12.7 mph 21.9 mph N/A   Clear
12:53 PM 72.0 °F - 66.9 °F 84% 29.84 in 10.0 mi South 8.1 mph - N/A   Clear
1:53 PM 75.9 °F - 69.1 °F 79% 29.84 in 10.0 mi SSW 8.1 mph - N/A   Clear
2:53 PM 81.0 °F 85.2 °F 72.0 °F 74% 29.83 in 10.0 mi South 9.2 mph - N/A   Clear
3:53 PM 82.9 °F 89.4 °F 73.9 °F 74% 29.82 in 10.0 mi South 6.9 mph - N/A   Clear
4:53 PM 84.9 °F 92.1 °F 73.9 °F 69% 29.81 in 10.0 mi SSE 9.2 mph - N/A   Clear
5:53 PM 82.0 °F 87.9 °F 73.9 °F 76% 29.82 in 10.0 mi ESE 11.5 mph - N/A   Overcast
6:53 PM 81.0 °F 85.8 °F 73.0 °F 77% 29.81 in 9.0 mi ESE 10.4 mph - 0.01 in Thunderstorm Scattered Clouds
7:23 PM 80.6 °F 87.1 °F 77.0 °F 89% 29.84 in 10.0 mi SE 4.6 mph - 0.07 in   Scattered Clouds
7:53 PM 78.1 °F - 75.9 °F 93% 29.81 in 10.0 mi East 5.8 mph - 0.08 in   Partly Cloudy
8:53 PM 75.9 °F - 73.0 °F 91% 29.84 in 10.0 mi ESE 6.9 mph - N/A   Clear
9:53 PM 75.9 °F - 73.0 °F 91% 29.85 in 10.0 mi ESE 8.1 mph - N/A   Mostly Cloudy
10:53 PM 75.9 °F - 73.0 °F 91% 29.85 in 10.0 mi SE 5.8 mph - N/A   Mostly Cloudy
11:53 PM 75.9 °F - 73.0 °F 91% 29.86 in 10.0 mi SSE 8.1 mph - N/A   Overcast